User: anonymous   Login
Location: Vancouver
(49.2500°N, 123.1330°W)
Time: 07:02:32
(UTC-08:00)
Language:

Transit 2A Rocket - Orbit

View from above orbital plane
View from above orbital plane
View from above satellite
View from above satellite

Ground track
Ground track

The orbit data is extracted from the following two-line orbital elements,

1 00047U 60007C   14329.81508106  .00000183  00000-0  66023-4 0  3663
2 00047 066.6650 182.9594 0231863 346.7286 012.7780 14.41361986842371
Epoch (UTC): 25 November 2014 19:33:43
Eccentricity: 0.0231863
inclination: 66.6650°
perigee height: 588 km
apogee height: 919 km
right ascension of ascending node: 182.9594°
argument of perigee: 346.7286°
revolutions per day: 14.41361986
mean anomaly at epoch: 12.7780°
orbit number at epoch: 84237

The dashed part of the orbit path shows where the satellite is in the earth's shadow,  

DLR